| time (UTC) | temp C | wind direction | speed KPH | gust KPH | rain 1hr cm | rain 24hr cm | rain mn cm | humidity % | barometer mb |
| 20260506224517 | 17 | 351 | 0.0 | 3.2 | 0.00 | 0.00 | 0.00 | 64 | 1006.7 |
| 20260506223017 | 17 | 309 | 0.0 | 8.0 | 0.00 | 0.00 | 0.00 | 62 | 1006.7 |
| 20260506221513 | 17 | 242 | 0.0 | 3.2 | 0.00 | 0.00 | 0.00 | 59 | 1006.4 |
| 20260506220017 | 18 | 315 | 0.0 | 6.4 | 0.00 | 0.00 | 0.00 | 58 | 1005.9 |
| 20260506214509 | 18 | 313 | 0.0 | 9.7 | 0.00 | 0.00 | 0.00 | 57 | 1005.5 |
| 20260506213007 | 18 | 334 | 1.6 | 14.5 | 0.00 | 0.00 | 0.00 | 56 | 1005.2 |
| 20260506211506 | 19 | 355 | 3.2 | 17.7 | 0.00 | 0.00 | 0.00 | 54 | 1004.8 |
| 20260506210006 | 19 | 279 | 1.6 | 8.0 | 0.00 | 0.00 | 0.00 | 50 | 1004.5 |
| 20260506204505 | 19 | 207 | 0.0 | 1.6 | 0.00 | 0.00 | 0.00 | 51 | 1004.2 |
| 20260506203016 | 20 | 311 | 0.0 | 0.0 | 0.00 | 0.00 | 0.00 | 51 | 1004.0 |
| 20260506201508 | 20 | 317 | 0.0 | 0.0 | 0.00 | 0.00 | 0.00 | 50 | 1003.8 |
| 20260506200005 | 20 | 317 | 0.0 | 0.0 | 0.00 | 0.00 | 0.00 | 50 | 1003.6 |
| 20260506194505 | 20 | 237 | 0.0 | 0.0 | 0.00 | 0.00 | 0.00 | 49 | 1003.4 |
| 20260506193004 | 21 | 232 | 0.0 | 1.6 | 0.00 | 0.00 | 0.00 | 48 | 1003.1 |
| 20260506191506 | 21 | 111 | 0.0 | 1.6 | 0.00 | 0.00 | 0.00 | 46 | 1002.9 |
| 20260506190006 | 21 | 104 | 0.0 | 4.8 | 0.00 | 0.00 | 0.00 | 45 | 1002.5 |
| 20260506184502 | 22 | 166 | 0.0 | 3.2 | 0.00 | 0.00 | 0.00 | 45 | 1002.4 |
| 20260506183002 | 22 | 254 | 0.0 | 4.8 | 0.00 | 0.00 | 0.00 | 44 | 1002.3 |
| 20260506181502 | 22 | 5 | 0.0 | 4.8 | 0.00 | 0.00 | 0.00 | 43 | 1002.0 |
| 20260506180003 | 23 | 82 | 0.0 | 3.2 | 0.00 | 0.00 | 0.00 | 42 | 1001.7 |
| 20260506174604 | 23 | 271 | 0.0 | 6.4 | 0.00 | 0.00 | 0.00 | 41 | 1001.7 |
| 20260506173115 | 23 | 211 | 0.0 | 6.4 | 0.00 | 0.00 | 0.00 | 39 | 1001.5 |
| 20260506171601 | 24 | 250 | 1.6 | 11.3 | 0.00 | 0.00 | 0.00 | 38 | 1001.6 |
| 20260506170100 | 25 | 178 | 0.0 | 11.3 | 0.00 | 0.00 | 0.00 | 36 | 1001.6 |
| 20260506164558 | 25 | 216 | 0.0 | 8.0 | 0.00 | 0.00 | 0.00 | 35 | 1001.7 |
| 20260506163057 | 25 | 206 | 0.0 | 9.7 | 0.00 | 0.00 | 0.00 | 35 | 1001.8 |
| 20260506161604 | 26 | 188 | 0.0 | 6.4 | 0.00 | 0.00 | 0.00 | 34 | 1001.8 |
| 20260506160057 | 26 | 225 | 0.0 | 9.7 | 0.00 | 0.00 | 0.00 | 33 | 1001.8 |
| 20260506154555 | 26 | 226 | 1.6 | 6.4 | 0.00 | 0.00 | 0.00 | 33 | 1001.9 |
| 20260506153052 | 27 | 336 | 0.0 | 4.8 | 0.00 | 0.00 | 0.00 | 34 | 1002.0 |
| 20260506151605 | 27 | 221 | 0.0 | 4.8 | 0.00 | 0.00 | 0.00 | 33 | 1002.0 |
| 20260506150050 | 27 | 288 | 0.0 | 4.8 | 0.00 | 0.00 | 0.00 | 33 | 1002.0 |
| 20260506144548 | 27 | 281 | 0.0 | 8.0 | 0.00 | 0.00 | 0.00 | 33 | 1002.2 |
| 20260506143052 | 27 | 319 | 0.0 | 3.2 | 0.00 | 0.00 | 0.00 | 32 | 1002.3 |
| 20260506141543 | 26 | 152 | 0.0 | 4.8 | 0.00 | 0.00 | 0.00 | 37 | 1002.2 |
| 20260506140041 | 25 | 96 | 3.2 | 14.5 | 0.00 | 0.00 | 0.00 | 40 | 1002.5 |
| 20260506134538 | 25 | 67 | 1.6 | 8.0 | 0.00 | 0.00 | 0.00 | 41 | 1002.6 |
| 20260506133040 | 25 | 31 | 1.6 | 11.3 | 0.00 | 0.00 | 0.00 | 40 | 1002.8 |
| 20260506131536 | 25 | 179 | 3.2 | 16.1 | 0.00 | 0.00 | 0.00 | 38 | 1003.2 |
| 20260506130035 | 25 | 75 | 4.8 | 16.1 | 0.00 | 0.00 | 0.00 | 39 | 1003.4 |
| 20260506124531 | 25 | 171 | 4.8 | 14.5 | 0.00 | 0.00 | 0.00 | 39 | 1003.8 |
| 20260506123031 | 25 | 91 | 6.4 | 17.7 | 0.00 | 0.00 | 0.00 | 39 | 1003.9 |
| 20260506121529 | 26 | 77 | 6.4 | 17.7 | 0.00 | 0.00 | 0.00 | 39 | 1004.0 |
| 20260506120030 | 25 | 92 | 4.8 | 16.1 | 0.00 | 0.00 | 0.00 | 39 | 1004.3 |
| 20260506114535 | 25 | 97 | 3.2 | 11.3 | 0.00 | 0.00 | 0.00 | 42 | 1004.4 |
| 20260506113022 | 25 | 93 | 3.2 | 16.1 | 0.00 | 0.00 | 0.00 | 43 | 1004.6 |
| 20260506111520 | 24 | 82 | 4.8 | 17.7 | 0.00 | 0.00 | 0.00 | 43 | 1005.0 |
| 20260506110021 | 24 | 171 | 1.6 | 12.9 | 0.00 | 0.00 | 0.00 | 44 | 1005.0 |
| 20260506104520 | 23 | 103 | 1.6 | 11.3 | 0.00 | 0.00 | 0.00 | 44 | 1005.3 |
| 20260506103019 | 24 | 187 | 1.6 | 9.7 | 0.00 | 0.00 | 0.00 | 44 | 1005.7 |
| 20260506101532 | 24 | 173 | 1.6 | 16.1 | 0.00 | 0.00 | 0.00 | 44 | 1005.9 |
| 20260506100015 | 23 | 78 | 3.2 | 12.9 | 0.00 | 0.00 | 0.00 | 45 | 1006.0 |
| 20260506094517 | 23 | 137 | 3.2 | 11.3 | 0.00 | 0.00 | 0.00 | 45 | 1006.2 |
| 20260506093014 | 23 | 148 | 1.6 | 6.4 | 0.00 | 0.00 | 0.00 | 45 | 1006.5 |
| 20260506091517 | 23 | 72 | 1.6 | 14.5 | 0.00 | 0.00 | 0.00 | 43 | 1006.5 |
| 20260506090010 | 23 | 117 | 1.6 | 6.4 | 0.00 | 0.00 | 0.00 | 48 | 1006.6 |
| 20260506084516 | 23 | 130 | 0.0 | 8.0 | 0.00 | 0.00 | 0.00 | 49 | 1006.7 |
| 20260506083005 | 23 | 128 | 0.0 | 3.2 | 0.00 | 0.00 | 0.00 | 48 | 1006.7 |
| 20260506081502 | 22 | 75 | 0.0 | 4.8 | 0.00 | 0.00 | 0.00 | 50 | 1006.8 |
| 20260506073050 | 22 | 172 | 0.0 | 1.6 | 0.00 | 0.00 | 0.00 | 55 | 1007.4 |
| 20260506071600 | 21 | 211 | 0.0 | 4.8 | 0.00 | 0.00 | 0.00 | 57 | 1007.7 |
| 20260506061534 | 18 | 129 | 0.0 | 1.6 | 0.00 | 0.00 | 0.00 | 67 | 1008.0 |
| 20260506044524 | 14 | 236 | 0.0 | 0.0 | 0.00 | 0.00 | 0.00 | 82 | 1008.0 |
| 20260506043020 | 14 | 242 | 0.0 | 3.2 | 0.00 | 0.00 | 0.00 | 82 | 1007.9 |
| 20260506041525 | 13 | 360 | 0.0 | 3.2 | 0.00 | 0.00 | 0.00 | 83 | 1007.9 |
| 20260506040012 | 13 | 310 | 0.0 | 1.6 | 0.00 | 0.00 | 0.00 | 82 | 1007.7 |
| 20260506034509 | 13 | 340 | 0.0 | 0.0 | 0.00 | 0.00 | 0.00 | 82 | 1007.4 |
| 20260506033007 | 14 | 340 | 0.0 | 3.2 | 0.00 | 0.00 | 0.00 | 81 | 1007.2 |
| 20260506031512 | 14 | 329 | 0.0 | 3.2 | 0.00 | 0.00 | 0.00 | 79 | 1007.2 |
| 20260506030007 | 15 | 334 | 0.0 | 0.0 | 0.00 | 0.00 | 0.00 | 79 | 1007.4 |
| 20260506024502 | 15 | 334 | 0.0 | 0.0 | 0.00 | 0.00 | 0.00 | 78 | 1007.5 |
| 20260506023002 | 15 | 333 | 0.0 | 1.6 | 0.00 | 0.00 | 0.00 | 78 | 1007.3 |
| 20260506021600 | 15 | 297 | 0.0 | 1.6 | 0.00 | 0.00 | 0.00 | 77 | 1007.3 |
| 20260506020059 | 15 | 286 | 0.0 | 1.6 | 0.00 | 0.00 | 0.00 | 77 | 1007.3 |
| 20260506014559 | 15 | 227 | 0.0 | 0.0 | 0.00 | 0.00 | 0.00 | 76 | 1007.3 |
| 20260506013057 | 15 | 227 | 0.0 | 0.0 | 0.00 | 0.00 | 0.00 | 76 | 1007.1 |
| 20260506011555 | 15 | 227 | 0.0 | 1.6 | 0.00 | 0.00 | 0.00 | 77 | 1007.0 |
| 20260506010053 | 15 | 360 | 0.0 | 0.0 | 0.00 | 0.00 | 0.00 | 75 | 1006.8 |
| 20260506004555 | 15 | 360 | 0.0 | 0.0 | 0.00 | 0.00 | 0.00 | 75 | 1006.8 |
| 20260506003049 | 15 | 360 | 0.0 | 0.0 | 0.00 | 0.00 | 0.00 | 73 | 1006.8 |
| 20260506001607 | 16 | 360 | 0.0 | 0.0 | 0.00 | 0.00 | 0.00 | 72 | 1006.5 |
| 20260506000047 | 16 | 360 | 0.0 | 0.0 | 0.00 | 0.00 | 0.00 | 70 | 1006.2 |
| 20260505234547 | 16 | 360 | 0.0 | 0.0 | 0.00 | 0.00 | 0.00 | 69 | 1006.0 |
| 20260505233037 | 16 | 5 | 0.0 | 0.0 | 0.00 | 0.00 | 0.00 | 67 | 1005.8 |
| 20260505231541 | 17 | 5 | 0.0 | 0.0 | 0.00 | 0.00 | 0.00 | 65 | 1005.7 |
| 20260505230036 | 17 | 5 | 0.0 | 0.0 | 0.00 | 0.00 | 0.00 | 63 | 1005.7 |